GFSCGP_700_rhum_015.txt.gz
RH
31 32 27 24 24 20 17 14 13 15 19 15 16 25 25 40 45 49 53 62 72 78 48 59 64 62 64 62 65 63 71 80 90 81 88 74 60 51 39 35 38 46 51 49
34 35 26 22 20 17 16 15 17 22 19 22 20 23 31 38 41 48 53 57 62 76 36 47 52 55 60 60 66 66 74 77 68 66 52 55 48 39 40 47 58 58 58 59
39 27 18 25 19 18 18 14 24 21 27 24 23 27 38 34 42 45 59 62 67 83 37 35 44 51 51 54 67 61 42 42 38 37 42 41 40 49 52 50 58 63 67 71
34 33 25 22 22 22 24 24 25 23 28 24 23 19 31 41 26 24 25 61 76 82 38 29 35 44 56 54 44 41 41 42 47 47 50 54 90 100 68 77 76 80 78 57
35 28 26 23 30 23 42 30 27 25 23 29 24 22 38 44 43 34 31 36 55 32 32 39 52 51 44 42 47 44 47 55 58 59 62 65 70 74 76 78 80 81 82 71
42 26 28 30 22 25 23 33 34 27 24 27 20 25 26 39 37 48 49 50 55 41 38 51 49 43 38 45 51 46 50 53 58 62 66 70 75 79 85 87 90 93 65 38
30 28 26 25 34 32 29 30 26 24 27 28 26 25 22 24 40 40 65 63 75 47 45 48 44 38 46 54 52 51 54 56 59 62 66 73 78 82 87 99 82 54 41 32
26 34 33 35 30 30 33 26 26 28 27 19 32 24 20 27 32 32 60 76 64 44 50 52 40 43 53 55 53 55 57 57 59 63 68 80 89 93 99 72 52 42 32 24
23 30 36 34 40 31 28 33 30 33 39 34 22 18 24 28 30 40 62 76 73 60 57 53 44 52 52 60 58 60 61 61 63 69 80 92 100 100 92 53 44 31 24 20
29 28 35 38 30 34 36 35 32 27 34 34 17 20 16 38 41 51 60 72 78 82 77 55 54 53 55 60 66 68 70 68 71 76 86 97 100 95 64 44 33 24 22 18
28 28 40 45 39 28 40 30 31 33 38 32 23 17 26 23 40 45 54 67 74 80 84 75 56 56 58 60 66 72 75 75 79 78 92 100 94 64 50 37 27 25 21 15
29 33 40 37 38 34 41 34 34 31 26 34 44 23 19 9 19 42 50 59 68 78 82 92 57 59 61 62 66 72 77 83 86 88 98 95 69 60 44 32 27 25 18 10
42 33 39 38 43 42 33 32 33 30 32 28 49 23 31 13 10 18 44 56 67 75 83 84 54 56 61 65 67 72 80 88 89 94 99 78 75 59 39 27 27 21 13 7
35 35 36 35 33 35 41 32 33 33 32 28 25 20 22 29 33 35 37 45 60 71 84 75 60 59 62 68 72 76 82 89 93 100 91 81 76 46 26 31 26 18 8 7
41 48 39 40 45 38 34 31 32 31 28 25 25 16 15 18 23 28 36 30 49 58 33 42 52 59 64 67 72 80 82 94 99 98 88 85 64 32 38 33 21 11 7 6
45 52 47 40 47 41 40 35 28 28 29 24 22 21 19 26 29 25 38 15 17 28 35 41 48 56 60 65 76 83 90 96 99 96 94 84 44 42 52 22 15 7 7 9
61 50 46 42 45 51 46 26 31 28 28 28 26 25 28 39 34 25 38 28 24 28 30 38 47 51 60 71 77 85 99 100 95 100 96 61 53 84 26 19 8 7 10 13
45 44 46 44 32 72 24 26 24 26 28 27 29 29 30 41 35 28 27 40 31 31 30 32 32 32 55 72 81 96 100 98 98 97 95 95 84 32 20 9 7 10 13 16
31 26 34 44 38 28 27 22 16 17 16 25 35 30 32 39 21 24 42 40 33 36 38 43 43 45 53 64 92 97 98 97 96 98 88 87 53 21 10 8 10 12 13 17
44 37 38 31 54 84 42 23 17 17 28 40 28 35 39 25 30 41 54 51 44 41 54 61 62 71 73 76 84 90 99 100 99 95 93 84 46 11 8 8 12 12 15 21
46 52 53 64 64 49 41 23 21 35 46 39 26 38 36 41 54 61 52 50 56 68 80 84 86 86 87 90 94 99 98 97 95 96 91 62 18 8 8 11 12 14 20 26
46 40 39 65 59 52 32 27 33 49 30 30 30 52 43 44 47 53 53 55 57 69 84 90 96 97 94 97 99 99 99 95 94 93 72 33 26 15 12 14 13 18 26 29
64 60 64 44 48 48 29 30 44 30 30 33 37 40 52 54 50 55 67 53 56 67 80 87 94 97 100 96 100 97 96 96 94 86 46 39 19 13 19 16 17 24 32 36
46 38 31 31 45 51 55 44 36 40 49 47 53 58 63 66 68 69 82 64 68 68 65 71 86 100 100 99 98 96 95 95 92 66 46 18 14 21 24 19 21 30 37 37
49 43 46 49 38 52 61 70 62 55 62 65 66 71 67 69 78 84 88 88 88 86 87 90 96 100 99 97 96 95 95 92 75 48 31 23 21 26 28 24 25 34 39 41
47 48 47 59 62 54 70 72 52 62 64 67 73 80 83 91 94 100 96 98 98 100 94 92 99 99 96 96 95 94 90 75 49 28 20 23 28 34 34 32 30 32 36 41

GFSCGP_700_rhum_018.txt.gz
RH
34 35 32 30 28 25 24 21 20 18 21 19 14 24 32 36 43 50 61 69 56 82 84 43 49 48 66 100 55 54 66 70 67 80 86 79 77 51 49 42 35 33 43 50
31 32 34 31 29 26 19 20 15 17 16 17 15 20 22 34 38 44 50 59 77 75 77 48 42 54 62 66 58 60 67 73 75 72 53 56 48 44 38 37 41 49 56 62
46 39 30 26 28 21 18 19 24 19 19 14 26 18 23 27 37 39 43 47 55 67 70 54 42 46 59 59 54 59 64 66 44 42 38 41 42 42 47 57 59 66 68 66
41 37 32 24 19 18 26 30 26 25 26 24 24 27 28 35 32 35 42 48 53 59 70 56 33 31 35 42 48 55 57 43 40 46 48 49 51 57 64 67 71 80 81 78
38 35 27 23 28 28 28 22 28 24 20 26 29 35 37 43 30 39 44 51 58 65 77 65 51 32 36 42 52 49 43 43 46 48 51 57 54 64 66 70 77 78 85 82
34 39 36 42 28 32 31 28 30 22 20 50 32 37 42 44 27 44 48 58 66 69 78 77 47 38 43 49 45 40 48 47 46 49 52 55 58 63 66 75 79 84 97 77
30 28 25 30 24 26 23 23 26 58 56 41 23 34 25 33 44 37 44 56 73 78 79 65 41 40 48 45 40 50 51 49 50 50 53 57 61 66 77 85 91 96 94 52
42 37 28 26 24 32 35 22 31 82 82 36 29 31 22 32 39 35 57 64 68 72 80 74 51 52 47 41 45 54 52 51 50 53 56 61 67 73 81 92 96 84 56 47
50 45 49 35 31 28 22 24 27 30 49 37 23 17 24 35 32 26 51 67 71 74 76 74 63 57 46 40 47 55 56 56 56 59 62 68 74 78 91 95 90 56 54 40
46 73 40 38 30 32 22 30 33 27 38 38 21 19 26 34 37 31 46 62 75 82 80 75 74 66 50 42 50 55 61 63 66 67 73 76 80 94 99 94 62 62 48 36
26 38 34 40 35 23 35 30 28 25 32 56 50 23 23 26 16 36 45 59 71 78 77 74 72 72 57 53 54 56 60 62 64 71 81 85 92 96 99 84 67 58 41 40
30 28 28 34 32 32 35 38 28 33 31 34 38 32 20 16 7 12 36 48 64 70 74 79 79 70 61 62 58 59 63 65 66 74 85 93 99 100 94 83 66 55 44 45
34 32 29 33 37 38 34 27 30 32 33 39 55 32 28 23 18 19 35 44 55 64 74 79 82 73 52 59 60 60 67 71 73 81 92 99 100 100 90 80 56 37 49 28
35 39 29 38 32 38 37 34 26 28 35 35 28 23 23 24 30 31 33 32 47 56 67 75 80 86 78 74 67 69 74 75 83 90 100 100 99 97 94 56 32 63 61 18
37 42 37 33 32 40 40 32 31 28 29 31 29 25 22 16 20 23 28 35 32 42 58 68 77 88 98 73 69 76 77 78 82 100 100 100 99 98 69 80 64 91 30 9
40 50 49 47 44 43 41 39 35 30 26 27 25 24 22 22 26 27 31 34 43 30 43 58 71 85 92 74 70 72 75 80 86 100 100 100 100 83 93 82 92 45 12 8
66 53 52 54 51 44 41 30 26 32 30 26 26 26 25 27 32 38 38 40 46 28 27 41 58 53 56 60 70 73 80 82 94 100 100 100 96 97 96 89 82 37 9 10
66 54 60 48 42 61 22 30 30 32 31 29 25 25 26 28 33 36 27 29 39 57 33 32 33 36 40 47 66 79 77 78 96 100 99 96 98 97 96 92 48 12 25 13
52 51 47 47 48 31 28 29 27 28 19 27 31 30 34 36 34 30 44 51 49 46 44 45 40 52 56 56 69 74 88 99 99 99 100 99 96 96 95 67 33 72 14 12
42 44 43 34 58 76 44 34 24 17 26 40 34 42 32 29 24 45 51 54 54 56 50 77 71 83 84 82 89 92 97 94 97 97 98 96 96 95 57 69 67 40 30 13
50 47 41 55 53 50 44 42 31 30 47 47 39 27 28 40 55 59 51 50 51 51 60 63 94 89 96 95 93 93 98 96 98 92 97 95 95 86 91 62 46 46 17 15
39 43 46 66 82 65 41 35 32 62 51 31 30 31 36 48 34 40 48 84 51 51 62 66 58 65 78 86 93 99 98 99 98 97 97 95 94 92 70 61 50 22 19 19
61 59 67 51 49 50 42 32 39 45 34 30 32 40 50 65 66 64 66 92 67 72 69 69 72 77 82 90 99 99 98 98 98 96 94 94 92 74 64 44 22 25 23 23
64 57 51 49 38 48 52 55 58 61 65 63 46 56 71 59 66 75 89 98 82 89 87 95 96 100 100 99 99 100 98 96 94 95 92 86 74 58 29 23 26 30 29 28
62 61 49 54 49 48 53 63 69 54 55 58 57 70 66 71 81 85 90 96 97 100 99 100 100 100 100 100 97 95 97 96 92 80 70 57 32 22 24 27 27 31 36 41
53 58 57 46 64 50 64 72 56 59 51 56 63 68 76 85 95 97 98 99 97 100 100 100 100 97 92 90 96 96 85 58 52 47 29 22 22 23 28 33 34 40 38 39

GFSCGP_700_rhum_021.txt.gz
RH
30 32 35 35 35 33 27 24 23 22 25 21 24 26 28 43 49 51 55 63 68 60 43 53 57 84 74 52 49 55 59 66 65 60 68 80 70 66 42 44 35 35 34 40
43 40 37 35 34 31 27 27 25 22 21 18 25 24 26 37 41 56 57 57 47 60 42 36 42 68 68 46 52 54 56 58 59 60 67 60 53 38 41 39 38 45 54 61
37 34 36 36 33 30 28 29 20 18 15 15 18 23 28 32 37 52 52 48 54 70 56 45 42 54 47 45 49 56 57 58 65 68 51 42 41 43 44 48 52 58 63 67
39 36 30 31 29 25 27 25 30 27 25 21 21 31 26 30 33 38 42 44 60 66 69 66 54 53 42 40 54 54 61 66 65 53 42 43 42 45 46 48 55 66 72 78
38 36 32 40 32 29 29 27 25 25 25 30 30 30 26 33 30 30 38 43 48 53 53 56 60 61 58 41 35 43 48 55 51 42 47 43 48 47 54 57 65 71 82 92
35 37 39 32 26 28 29 21 22 26 32 44 26 28 37 34 30 31 35 43 48 55 58 63 67 69 58 32 33 40 50 47 42 50 47 47 46 53 60 67 73 87 97 93
32 33 35 36 27 27 33 28 37 43 63 67 45 40 32 27 29 32 34 30 39 52 62 67 68 64 44 38 43 48 46 42 50 50 50 48 53 60 66 72 83 91 92 90
38 37 38 41 36 28 32 30 37 62 90 61 46 49 29 28 31 37 37 41 40 57 59 59 47 57 52 46 50 48 45 49 54 51 52 54 58 63 69 76 87 94 91 85
40 44 35 40 34 36 27 32 32 38 61 79 43 34 35 37 38 42 39 50 48 55 52 52 50 46 44 51 52 48 47 52 57 57 58 59 64 71 79 87 90 96 97 79
32 38 44 46 40 36 28 27 33 32 60 52 28 29 40 40 41 29 40 55 64 65 61 60 52 43 44 54 55 50 49 52 58 62 67 71 77 82 89 95 99 99 98 89
33 32 40 52 47 33 32 32 24 32 28 64 73 31 24 21 22 32 57 62 60 59 62 60 52 42 35 33 49 58 52 50 56 59 68 76 83 91 99 100 100 99 98 75
47 36 48 44 32 33 30 37 43 28 31 36 38 34 27 21 16 17 19 45 55 59 60 64 64 55 44 40 36 50 64 69 64 64 71 81 87 98 99 98 100 100 94 69
34 32 27 26 35 39 34 30 28 28 32 34 48 33 28 23 26 24 22 22 45 57 60 64 68 59 50 50 51 65 76 80 79 76 78 87 96 100 99 98 98 95 83 58
30 38 33 30 27 34 39 38 35 27 32 34 34 31 24 21 26 28 28 30 28 37 54 59 67 72 77 78 77 81 80 71 76 78 82 98 100 97 98 98 97 92 92 83
29 25 39 33 32 36 41 42 41 36 28 29 29 30 25 28 24 29 32 35 37 35 53 63 62 66 74 80 85 76 61 71 82 70 78 98 97 99 95 97 96 94 94 79
33 34 34 38 38 42 42 41 40 38 34 30 28 29 28 28 26 28 30 32 39 43 29 36 69 71 71 71 71 65 64 77 80 71 92 100 97 96 93 97 98 97 93 88
39 40 41 48 45 44 40 24 26 25 28 33 32 28 26 27 28 32 34 34 32 22 26 25 28 41 59 66 58 50 58 67 70 92 100 99 94 100 100 98 96 96 92 87
45 48 57 54 51 50 32 27 32 32 34 31 29 29 28 30 32 36 37 33 27 31 38 38 39 34 43 40 47 60 66 80 94 100 100 100 100 100 96 98 96 93 95 89
57 55 58 56 44 39 26 29 29 24 26 28 28 32 30 33 34 31 26 27 32 44 53 53 52 41 46 56 75 80 90 99 100 96 93 99 96 99 99 96 93 94 93 92
55 54 54 51 45 64 42 38 30 22 33 34 31 30 31 29 26 25 29 35 47 50 60 62 50 48 51 64 76 80 86 89 96 100 99 96 96 97 96 95 94 88 85 57
51 58 60 47 38 39 39 40 36 34 39 46 45 42 30 27 28 33 49 54 50 38 46 55 57 60 66 77 86 95 99 99 99 98 97 98 97 95 95 95 89 85 62 33
41 46 49 51 66 60 44 44 40 40 42 45 42 30 29 30 32 38 45 50 57 56 55 60 76 89 96 98 98 99 99 99 99 98 98 97 96 96 94 82 74 61 32 27
52 44 39 38 44 38 44 37 40 43 36 35 33 34 36 37 50 61 65 65 62 67 81 90 92 99 100 100 99 99 99 99 98 97 93 94 95 86 60 63 58 28 29 29
59 63 66 60 54 50 52 53 54 55 50 42 41 40 46 55 60 67 76 84 95 97 100 100 100 100 99 99 99 95 94 91 83 84 94 85 58 52 58 37 25 27 32 36
50 55 55 49 42 45 48 53 54 55 55 56 59 50 52 60 68 78 89 97 94 98 99 98 100 100 98 98 92 81 75 78 87 76 55 51 45 32 24 24 24 27 30 35
49 53 51 52 50 48 49 49 54 55 59 60 58 58 62 69 84 95 92 94 100 90 80 83 79 77 82 73 72 79 85 72 55 50 45 38 32 26 22 24 28 35 32 34

GFSCGP_700_rhum_024.txt.gz
RH
34 35 35 33 30 33 30 31 28 24 24 29 30 34 29 43 52 46 54 67 73 75 68 49 48 45 41 54 55 53 57 72 65 70 62 56 58 55 46 38 38 37 37 38
40 38 37 34 37 33 34 35 28 26 23 24 27 28 28 48 48 52 40 48 54 53 64 56 40 32 32 38 46 53 62 67 69 70 67 60 55 50 40 39 41 44 41 46
38 36 37 35 39 35 32 31 31 25 22 22 25 37 42 42 48 52 50 47 46 51 48 49 49 43 42 40 47 63 66 68 67 63 61 61 50 42 39 42 46 51 62 68
38 36 34 35 35 34 29 25 28 25 22 18 23 32 42 36 37 49 44 45 48 46 50 60 64 64 59 60 64 68 66 66 66 56 60 59 44 42 46 48 54 62 66 72
36 38 38 35 29 32 29 29 28 26 26 29 30 30 31 33 35 40 40 39 42 44 44 46 49 53 72 74 72 64 58 53 52 50 62 44 47 45 46 54 61 65 71 82
34 35 38 36 32 30 34 26 25 24 28 47 42 37 31 30 26 27 36 38 43 47 48 53 63 73 80 80 76 74 53 44 48 56 45 49 50 48 53 60 66 73 82 95
36 33 33 32 34 28 30 30 32 40 61 63 40 44 36 32 30 28 29 32 40 48 53 59 68 74 75 70 62 47 40 44 52 46 49 52 52 56 61 66 72 88 93 98
30 40 35 34 39 40 33 30 33 43 74 51 39 45 26 28 26 31 32 34 34 42 49 53 64 72 68 60 64 59 48 50 48 49 53 51 56 61 65 73 96 98 99 99
35 40 35 33 36 41 38 34 31 40 62 63 42 35 28 31 30 30 33 35 38 42 45 46 49 58 59 58 61 56 54 52 50 57 58 58 61 68 77 96 99 100 99 99
26 32 31 33 31 34 40 36 39 38 65 68 36 33 37 35 33 31 31 40 44 43 40 47 54 58 50 44 50 52 57 57 57 63 64 62 63 71 88 96 99 98 99 99
26 30 34 31 40 35 33 32 32 34 31 59 68 33 38 32 17 16 17 19 26 38 43 51 54 42 22 22 28 39 45 56 62 65 69 74 78 88 98 98 100 98 92 96
25 33 36 32 30 31 39 34 35 32 34 34 41 36 28 28 22 14 21 25 24 39 44 48 48 36 31 33 33 33 44 59 70 78 79 78 83 88 95 97 95 91 93 91
33 36 38 45 44 44 43 34 32 34 32 30 46 34 28 28 30 28 25 24 26 23 24 45 58 55 55 57 59 56 41 60 79 74 73 78 86 91 96 92 90 89 89 94
37 34 33 30 30 32 39 38 40 38 33 32 35 33 32 30 28 24 29 29 28 29 41 54 62 60 60 64 71 74 75 77 79 74 71 80 94 97 87 87 82 84 85 87
39 36 34 34 29 34 37 43 41 42 40 38 32 29 28 26 28 26 30 32 34 36 38 46 59 68 70 76 79 80 80 81 80 69 72 85 98 89 82 88 92 91 86 92
35 32 29 38 39 34 30 40 42 41 40 40 36 30 28 32 31 28 28 35 36 39 41 45 44 61 77 84 84 80 81 73 65 67 82 100 95 91 94 98 99 98 94 100
35 34 36 38 33 36 45 29 30 34 34 27 31 36 32 31 35 34 36 36 39 41 36 26 24 25 28 42 79 65 53 59 68 90 100 97 96 93 99 96 96 100 100 96
42 38 40 46 47 62 42 32 30 30 33 37 34 35 33 34 38 40 40 37 32 27 29 33 37 41 44 42 43 46 54 64 79 85 76 76 92 97 99 100 100 99 95 94
55 53 54 58 53 46 31 31 31 29 37 36 35 32 33 34 37 30 27 29 33 37 40 45 50 49 47 46 48 54 61 73 78 83 98 100 100 100 99 99 97 96 93 94
54 54 60 62 48 59 33 32 30 30 32 38 41 37 36 34 29 29 31 30 35 38 44 53 50 54 62 64 66 76 87 90 95 100 100 100 99 97 98 96 94 97 94 88
55 68 68 60 50 34 32 40 39 31 31 30 34 39 40 39 32 28 28 28 30 35 42 54 66 67 68 75 93 96 98 98 99 100 99 98 98 98 96 96 96 96 76 43
45 53 69 66 52 49 37 35 45 39 38 37 36 38 36 31 31 32 36 44 54 62 70 72 72 73 71 80 93 100 99 99 99 99 98 98 97 97 95 90 89 59 45 41
49 41 39 42 40 42 41 43 39 38 36 34 34 37 39 32 32 40 49 60 69 76 80 80 74 72 87 100 99 100 97 100 98 94 96 100 88 79 86 86 56 44 30 24
53 48 47 42 45 52 54 47 45 44 43 41 42 46 45 41 43 46 55 67 73 79 85 84 82 100 100 100 100 99 100 99 92 82 72 73 81 88 64 48 34 28 25 22
41 51 50 61 56 48 50 51 52 51 51 53 53 55 62 66 54 55 60 70 83 88 81 90 98 88 82 80 75 82 79 72 71 75 80 69 57 46 35 30 23 19 21 27
33 36 40 43 50 48 44 44 47 53 58 62 67 70 74 63 60 68 82 95 95 95 100 95 79 70 67 68 70 70 69 58 46 40 33 25 21 20 19 20 22 28 31 33